Regional Weather Roundup
Issued by NWS

Home | Current Version | Previous Version | Graphics & Text | Print | Product List | Glossary On
Versions: 1 2 3 4 5 6 7 8 9 10 11 12 13 14 15 16 17 18 19 20 21 22 23 24 25 26 27 28 29 30 31 32 33 34 35 36 37 38 39 40 41 42 43 44 45 46 47 48 49 50
000
ASUS45 KPSR 042200
RWRAZ

ARIZONA HOURLY REGIONAL WEATHER ROUNDUP
NATIONAL WEATHER SERVICE PHOENIX AZ
300 PM MST SAT JUL 04 2015

NOTE: FAIR INDICATES FEW OR NO CLOUDS BELOW 12,000 FEET WITH NO
SIGNIFICANT WEATHER AND/OR OBSTRUCTIONS TO VISIBILITY.

AZZ001>003-036-042300-
NORTHWEST ARIZONA

CITY           SKY/WX    TMP DP  RH WIND       PRES   REMARKS
KINGMAN        CLOUDY    88  51  28 SW16      29.99S
$$

AZZ004>008-015-016-018-042300-
NORTH CENTRAL ARIZONA

CITY           SKY/WX    TMP DP  RH WIND       PRES   REMARKS
GRAND CANYON   PTSUNNY   78  50  37 W12G20    30.18F
WILLIAMS       LGT RAIN  64  59  82 W8        30.27S
PRESCOTT       CLOUDY    83  58  42 SW10      30.07F
FLAGSTAFF      NOT AVBL
PAYSON         MOSUNNY   88  54  31 SW12      30.09F
PAGE           CLOUDY    90  50  25 VRB3      29.97F
$$

AZZ009>014-017-042300-
NORTHEAST ARIZONA

CITY           SKY/WX    TMP DP  RH WIND       PRES   REMARKS
WINSLOW        NOT AVBL
SAINT JOHNS    PTSUNNY   76  52  43 SW6       30.12F
WINDOW ROCK    PTSUNNY   76  57  51 NW3       30.16F
SHOW LOW       TSTM      61  55  82 W14G24    30.24R
$$

AZZ023-042300-
GREATER PHOENIX AREA

CITY           SKY/WX    TMP DP  RH WIND       PRES   REMARKS
PHOENIX        MOSUNNY  104  51  17 W15       29.77F HX 101
GLENDALE       PTSUNNY  102  55  21 SW12G17   29.78F HX 101
LUKE AFB       PTSUNNY  102  55  21 SW12      29.76F HX 101
DEER VALLEY    MOSUNNY  102  52  18 SW16G28   29.78F
SCOTTSDALE     SUNNY    101  54  20 W14       29.80F
MESA-GATEWAY   PTSUNNY  100  57  23 W8G17     29.82F
CHANDLER       PTSUNNY  102  55  21 S6        29.78F HX 101
$$

AZZ027-028-042300-
SOUTHWEST MARICOPA COUNTY AND PINAL COUNTY

CITY           SKY/WX    TMP DP  RH WIND       PRES   REMARKS
CASA GRANDE    MOSUNNY  100  55  22 W10       29.80F
GILA BEND      FAIR     102  56  21 S9G17     29.76F HX 100
$$

AZZ503-504-507>509-042300-
SOUTHEAST ARIZONA

CITY           SKY/WX    TMP DP  RH WIND       PRES   REMARKS
TUCSON         PTSUNNY   93  55  27 VRB6      29.94F
DAVIS-MONTHAN  CLOUDY    91  58  33 W8        29.92F
RYAN FIELD     SUNNY     91  59  33 N6        29.93F
NOGALES        CLOUDY    83  54  36 W5        30.03F
SIERRA VISTA   PTSUNNY   85  53  33 NW12      30.07F
SAFFORD        PTSUNNY   90  60  36 W14       29.91F
$$

AZZ020-021-025-026-031-042300-
SOUTHWEST ARIZONA

CITY           SKY/WX    TMP DP  RH WIND       PRES   REMARKS
YUMA           NOT AVBL
$$

CAZ031-033-041-043-047-048-061-042300-
SOUTHERN CALIFORNIA

CITY           SKY/WX    TMP DP  RH WIND       PRES   REMARKS
DOWNTOWN L.A.  SUNNY     75  60  59 MISG      29.88S
L.A. AIRPORT   MOSUNNY   70  60  70 SW15      29.90F
SAN DIEGO      MOSUNNY   73  59  61 NW9G17    29.92S
BURBANK        SUNNY     80  59  48 S12       29.87F
ONTARIO        MOSUNNY   87  56  34 W16G22    29.87F
RIVERSIDE      SUNNY     87  56  34 W14G20    29.86F
PALM SPRINGS   MOSUNNY  110  52  14 NW10G23   29.70F HX 107
EL CENTRO NAS  MOSUNNY  109  57  18 SE18G24   29.67F HX 109
IMPERIAL       SUNNY    108  57  18 SE18G24   29.66F HX 108
BLYTHE         MOSUNNY  108  55  17 S20       29.70F HX 107
$$

NVZ020-UTZ003-042300-
SOUTHERN NEVADA-UTAH

CITY           SKY/WX    TMP DP  RH WIND       PRES   REMARKS
LAS VEGAS      NOT AVBL
SALT LAKE CITY PTSUNNY   97  51  21 NW8       29.86F
$$

NMZ009-TXZ055-042300-
NEW MEXICO-WEST TEXAS

CITY           SKY/WX    TMP DP  RH WIND       PRES   REMARKS
ALBUQUERQUE    TSTM      80  57  45 SE20G30   30.07R
EL PASO        PTSUNNY   93  52  24 E7        29.93F
$$


........................KEY........................
SKY/WX - SKY CONDITION/WEATHER
TMP    - TEMPERATURE IN FAHRENHEIT
DP     - DEW POINT IN FAHRENHEIT
RH     - RELATIVE HUMIDITY IN PERCENT
WIND   - DIRECTION AND SPEED IN MILES PER HOUR (MPH)
VRB    - VARIABLE WIND DIRECTION
PRES   - MEAN SEA LEVEL PRESSURE IN INCHES OF MERCURY
         F - FALLING PRESSURE   R - RISING PRESSURE
         S - STEADY PRESSURE
VSB    - VISIBILITY IN MILES
HX     - HEAT INDEX IN FAHRENHEIT
WCI    - WIND CHILL INDEX IN FAHRENHEIT
TC     - TEMPERATURE IN CELSIUS WHICH IS ALSO KNOWN AS
         TEMPERATURE IN CENTIGRADE
AFB    - AIR FORCE BASE
         LUKE AFB IS LUKE AIR FORCE BASE
         DAVIS-MONTHAN IS DAVIS-MONTHAN AIR FORCE BASE
NAS    - NAVAL AIR STATION
         EL CENTRO NAS IS EL CENTRO NAVAL AIR STATION
N/A    - NOT AVAILABLE




USA.gov is the U.S. government's official web portal to all federal, state and local government web resources and services.